Regional Weather Roundup
Issued by NWS Lake Charles, LA

Home | Current Version | Previous Version | Text Only | Print | Product List | Glossary On
Versions: 1 2 3 4 5 6 7 8 9 10 11 12 13 14 15 16 17 18 19 20 21 22 23 24 25 26 27 28 29 30 31 32 33 34 35 36 37 38 39 40 41 42 43 44 45 46 47 48 49 50
000
ASUS44 KLCH 242110
RWRLCH
REGIONAL WEATHER ROUNDUP
NATIONAL WEATHER SERVICE LAKE CHARLES LA
400 PM CDT WED AUG 24 2016

Note: "fair" indicates few or no clouds below 12,000 feet with no
significant weather and/or obstructions to visibility.


ACROSS SOUTHEAST TEXAS

CITY           SKY/WX    TMP DP  RH WIND       PRES   REMARKS
BEAUMONT       SUNNY     93  74  53 S8        30.07F HX 103
BEAUMONT CITY  FAIR      93  74  53 SE7       30.08F HX 102
ORANGE         CLEAR     91  70  49 S9        30.10F
JASPER           N/A     93  72  49 CALM      30.11F HX 101
$$

ACROSS CENTRAL LOUISIANA

CITY           SKY/WX    TMP DP  RH WIND       PRES   REMARKS
LEESVILLE      SUNNY     92  74  55 SW8       30.08F HX 102
FULLERTON      FAIR      88  79  74 CALM      30.06F HX 103
ALEXANDRIA INT SUNNY     93  74  53 VRB5      30.06F HX 103
ESLER FIELD    PTSUNNY   90  77  65 MISG      30.09F HX 103
DERIDDER       FAIR      92  71  50 SE3       30.10F
OAKDALE        PTCLDY    93  75  55 CALM      30.08F HX 103
OPELOUSAS      MOCLDY    91  74  56 CALM      30.08F HX 100
$$

ACROSS SOUTHWEST AND SOUTH CENTRAL LOUISIANA

CITY           SKY/WX    TMP DP  RH WIND       PRES   REMARKS
SULPHUR        PTCLDY    93  73  51 S7        30.09F HX 102
LAKE CHARLES   MOSUNNY   89  75  63 SW7       30.08F
CHENNAULT INT  MOSUNNY   95  73  49 CALM      30.07F HX 105
CAMERON PHI    CLEAR     88  75  66 S8        30.08F
DEQUINCY       FAIR      91  73  55 SE8       30.08F
JENNINGS       FAIR      91  75  59 CALM      30.08F HX 102
LAFAYETTE      PTSUNNY   94  76  55 VRB3      30.08F HX 106
NEW IBERIA     CLOUDY    91  77  63 S6        30.08F HX 104
ABBEVILLE      FAIR      87  81  82 SW6       30.09F HX 104
PATTERSON      CLOUDY    91  77  63 CALM      30.09F HX 104
SALT POINT       N/A     91  77  63 VRB5      30.07F HX 104
$$

SELECTED SITES ACROSS THE REGION

CITY           SKY/WX    TMP DP  RH WIND       PRES   REMARKS
HOUSTON BUSH   PTSUNNY   86  74  67 S5        30.07F
HOUSTON HOBBY  CLOUDY    92  77  61 S9        30.06F HX 105
GALVESTON      MOSUNNY   89  79  72 SE12      30.09F HX 104
COLLEGE STAT   SUNNY     92  71  50 S9        30.07F
CONROE         HVY RAIN  83  77  82 SE16G23   30.07F
HUNTSVILLE     MOSUNNY   93  71  48 VRB5      30.07F HX 100
LUFKIN         MOSUNNY   92  70  48 SE6       30.08F
SHREVEPORT     MOSUNNY   92  75  57 S7        30.08F HX 103
MONROE         MOSUNNY   93  76  57 CALM      30.09F HX 105
NATCHEZ MS     CLOUDY    84  75  74 NE6       30.12S THUNDER
BATON ROUGE    TSTM      91  77  63 NE3       30.07F HX 104
N.O. INTL ARPT CLOUDY    94  76  55 S6        30.09S HX 106
SLIDELL        TSTM      77  74  90 E7        30.12R
$$

MARINE REPORTS

STATION/POSITION TIME  SKY/WX   TEMP    WIND        PRES    VSBY
                                AIR SEA DIR/SP/G
                 (UTC)          (F)     (DEG/KT/KT) (MB)    (MI)
BUOY 30 S HIGH I 2050            86 88  140/  8/ 12 1018.8F
WVE H/P(F/S)=  1/ 5

SEA RIM ST PARK  2100            87     160/  8/  9 1019.4F
PORT ARTHUR      2000               87  150/  7/ 10 1019.5F
SABINE PASS N    2000            86 88  140/  8/ 11 1021.0F
TEXAS POINT      NOT AVBL
CALCASIEU PASS   2000            87 88  200/  6/  9 1019.1F
LK CHARLES BEACH 2000            91 82              1019.9F
MARSH ISLAND     2000            88                   N/A
FRESH WATER LOCK 2000            87 92  160/  6/  8 1020.2F
AMERADA PASS     2000            89 89  140/  2/  4 1019.3F
$$



USA.gov is the U.S. government's official web portal to all federal, state and local government web resources and services.